| time (UTC) | temp C | wind direction | speed KPH | gust KPH | rain 1hr cm | rain 24hr cm | rain mn cm | humidity % | barometer mb |
| 20260510204554 | 12 | 150 | 0.0 | 6.4 | 0.00 | 0.00 | 0.00 | 51 | 1018.7 |
| 20260510203052 | 12 | 101 | 1.6 | 8.0 | 0.00 | 0.00 | 0.00 | 48 | 1018.7 |
| 20260510201550 | 12 | 72 | 4.8 | 11.3 | 0.00 | 0.00 | 0.00 | 50 | 1018.5 |
| 20260510200050 | 12 | 289 | 9.7 | 19.3 | 0.00 | 0.00 | 0.00 | 38 | 1018.6 |
| 20260510194602 | 12 | 327 | 9.7 | 17.7 | 0.00 | 0.00 | 0.00 | 38 | 1018.7 |
| 20260510193049 | 12 | 283 | 8.0 | 24.1 | 0.00 | 0.00 | 0.00 | 41 | 1018.8 |
| 20260510191554 | 12 | 304 | 14.5 | 22.5 | 0.00 | 0.00 | 0.00 | 38 | 1018.9 |
| 20260510190053 | 12 | 354 | 12.9 | 27.4 | 0.00 | 0.00 | 0.00 | 37 | 1018.7 |
| 20260510184547 | 12 | 319 | 11.3 | 24.1 | 0.00 | 0.03 | 0.00 | 40 | 1018.6 |
| 20260510183043 | 13 | 321 | 16.1 | 27.4 | 0.00 | 0.03 | 0.00 | 39 | 1018.4 |
| 20260510181541 | 13 | 308 | 16.1 | 24.1 | 0.00 | 0.03 | 0.00 | 38 | 1018.4 |
| 20260510180044 | 12 | 304 | 12.9 | 20.9 | 0.00 | 0.03 | 0.00 | 42 | 1018.3 |
| 20260510174539 | 12 | 297 | 9.7 | 33.8 | 0.00 | 0.03 | 0.00 | 40 | 1018.4 |
| 20260510173037 | 12 | 323 | 19.3 | 30.6 | 0.00 | 0.03 | 0.00 | 42 | 1018.4 |
| 20260510171536 | 12 | 308 | 8.0 | 27.4 | 0.00 | 0.03 | 0.00 | 43 | 1018.6 |
| 20260510170039 | 12 | 296 | 9.7 | 24.1 | 0.00 | 0.03 | 0.00 | 42 | 1018.5 |
| 20260510164534 | 12 | 329 | 4.8 | 20.9 | 0.00 | 0.03 | 0.00 | 45 | 1018.4 |
| 20260510163035 | 11 | 321 | 9.7 | 27.4 | 0.00 | 0.03 | 0.00 | 46 | 1018.4 |
| 20260510161529 | 11 | 23 | 9.7 | 25.7 | 0.00 | 0.03 | 0.00 | 44 | 1018.4 |
| 20260510160028 | 11 | 273 | 11.3 | 24.1 | 0.00 | 0.03 | 0.00 | 46 | 1018.4 |
| 20260510154526 | 11 | 344 | 11.3 | 24.1 | 0.00 | 0.03 | 0.00 | 51 | 1018.4 |
| 20260510153022 | 11 | 320 | 14.5 | 27.4 | 0.00 | 0.03 | 0.00 | 50 | 1018.2 |
| 20260510151521 | 10 | 297 | 9.7 | 20.9 | 0.00 | 0.03 | 0.00 | 52 | 1018.0 |
| 20260510150019 | 10 | 18 | 8.0 | 24.1 | 0.00 | 0.05 | 0.00 | 54 | 1018.1 |
| 20260510144527 | 10 | 315 | 11.3 | 22.5 | 0.00 | 0.05 | 0.00 | 53 | 1017.8 |
| 20260510143018 | 10 | 258 | 6.4 | 14.5 | 0.00 | 0.05 | 0.00 | 55 | 1017.5 |
| 20260510141522 | 9 | 319 | 11.3 | 20.9 | 0.00 | 0.05 | 0.00 | 55 | 1017.5 |
| 20260510140014 | 8 | 12 | 8.0 | 19.3 | 0.00 | 0.05 | 0.00 | 54 | 1017.4 |
| 20260510134511 | 8 | 333 | 8.0 | 20.9 | 0.00 | 0.05 | 0.00 | 57 | 1017.3 |
| 20260510133008 | 8 | 330 | 4.8 | 17.7 | 0.00 | 0.05 | 0.00 | 56 | 1017.1 |
| 20260510131504 | 8 | 20 | 4.8 | 14.5 | 0.00 | 0.05 | 0.00 | 60 | 1016.9 |
| 20260510130000 | 7 | 327 | 8.0 | 14.5 | 0.00 | 0.05 | 0.00 | 61 | 1017.1 |
| 20260510124558 | 7 | 333 | 4.8 | 14.5 | 0.00 | 0.05 | 0.00 | 64 | 1016.8 |
| 20260510123059 | 7 | 320 | 4.8 | 11.3 | 0.00 | 0.05 | 0.00 | 68 | 1016.8 |
| 20260510121555 | 6 | 308 | 3.2 | 8.0 | 0.00 | 0.05 | 0.00 | 73 | 1016.6 |
| 20260510120053 | 5 | 281 | 4.8 | 9.7 | 0.00 | 0.05 | 0.00 | 78 | 1016.5 |
| 20260510114552 | 5 | 315 | 4.8 | 8.0 | 0.00 | 0.05 | 0.00 | 83 | 1016.4 |
| 20260510113106 | 3 | 300 | 3.2 | 6.4 | 0.00 | 0.05 | 0.00 | 88 | 1016.4 |
| 20260510111555 | 2 | 298 | 0.0 | 3.2 | 0.00 | 0.05 | 0.00 | 92 | 1016.1 |
| 20260510110046 | 1 | 311 | 0.0 | 0.0 | 0.00 | 0.05 | 0.00 | 91 | 1015.8 |
| 20260510104550 | 1 | 310 | 0.0 | 0.0 | 0.00 | 0.05 | 0.00 | 91 | 1015.6 |
| 20260510103047 | 0 | 310 | 0.0 | 0.0 | 0.00 | 0.05 | 0.00 | 92 | 1015.5 |
| 20260510101540 | 0 | 310 | 0.0 | 0.0 | 0.00 | 0.05 | 0.00 | 92 | 1015.2 |
| 20260510100037 | 0 | 310 | 0.0 | 0.0 | 0.00 | 0.05 | 0.00 | 92 | 1014.9 |
| 20260510094536 | 0 | 314 | 0.0 | 1.6 | 0.00 | 0.05 | 0.00 | 91 | 1014.6 |
| 20260510093040 | 0 | 304 | 0.0 | 0.0 | 0.00 | 0.05 | 0.00 | 91 | 1014.5 |
| 20260510091530 | 0 | 304 | 0.0 | 0.0 | 0.00 | 0.05 | 0.00 | 90 | 1014.1 |
| 20260510090027 | 1 | 304 | 0.0 | 0.0 | 0.00 | 0.05 | 0.00 | 90 | 1013.8 |
| 20260510084528 | 1 | 304 | 0.0 | 0.0 | 0.00 | 0.05 | 0.00 | 91 | 1013.5 |
| 20260510083031 | 1 | 304 | 0.0 | 0.0 | 0.00 | 0.05 | 0.00 | 90 | 1013.3 |
| 20260510081534 | 1 | 304 | 0.0 | 3.2 | 0.00 | 0.05 | 0.00 | 90 | 1013.0 |
| 20260510080019 | 2 | 304 | 0.0 | 0.0 | 0.00 | 0.05 | 0.00 | 89 | 1012.9 |
| 20260510074515 | 2 | 304 | 1.6 | 3.2 | 0.00 | 0.05 | 0.00 | 90 | 1012.9 |
| 20260510073013 | 2 | 34 | 0.0 | 0.0 | 0.00 | 0.05 | 0.00 | 89 | 1012.6 |
| 20260510071513 | 2 | 34 | 0.0 | 0.0 | 0.00 | 0.05 | 0.00 | 88 | 1012.3 |
| 20260510070005 | 3 | 34 | 0.0 | 0.0 | 0.00 | 0.05 | 0.00 | 85 | 1012.2 |
| 20260510064502 | 3 | 34 | 0.0 | 0.0 | 0.00 | 0.05 | 0.00 | 85 | 1012.0 |
| 20260510063059 | 3 | 34 | 0.0 | 0.0 | 0.00 | 0.05 | 0.00 | 79 | 1011.9 |
| 20260510061555 | 5 | 34 | 0.0 | 1.6 | 0.00 | 0.05 | 0.00 | 78 | 1011.8 |
| 20260510060054 | 6 | 34 | 0.0 | 3.2 | 0.00 | 0.05 | 0.00 | 77 | 1011.6 |
| 20260510054549 | 6 | 34 | 1.6 | 8.0 | 0.00 | 0.05 | 0.00 | 75 | 1011.6 |
| 20260510053103 | 6 | 54 | 4.8 | 11.3 | 0.00 | 0.05 | 0.00 | 75 | 1011.4 |
| 20260510051548 | 7 | 44 | 4.8 | 11.3 | 0.00 | 0.05 | 0.00 | 74 | 1011.2 |
| 20260510050037 | 7 | 9 | 6.4 | 14.5 | 0.00 | 0.05 | 0.00 | 72 | 1010.8 |
| 20260510044546 | 8 | 31 | 12.9 | 20.9 | 0.00 | 0.05 | 0.00 | 70 | 1010.4 |
| 20260510043034 | 8 | 11 | 0.0 | 1.6 | 0.00 | 0.05 | 0.00 | 69 | 1010.0 |
| 20260510041526 | 9 | 13 | 0.0 | 6.4 | 0.00 | 0.05 | 0.00 | 67 | 1009.8 |
| 20260510040035 | 10 | 356 | 1.6 | 8.0 | 0.00 | 0.05 | 0.05 | 65 | 1009.7 |
| 20260510034522 | 10 | 356 | 3.2 | 6.4 | 0.00 | 0.05 | 0.05 | 64 | 1009.7 |
| 20260510033027 | 11 | 343 | 6.4 | 14.5 | 0.00 | 0.05 | 0.05 | 63 | 1009.4 |
| 20260510031519 | 11 | 349 | 4.8 | 9.7 | 0.00 | 0.05 | 0.05 | 64 | 1009.1 |
| 20260510030017 | 11 | 356 | 3.2 | 9.7 | 0.00 | 0.05 | 0.05 | 65 | 1009.0 |
| 20260510024517 | 11 | 344 | 6.4 | 17.7 | 0.00 | 0.05 | 0.05 | 63 | 1008.8 |
| 20260510023012 | 12 | 320 | 11.3 | 20.9 | 0.00 | 0.05 | 0.05 | 63 | 1008.6 |
| 20260510021511 | 12 | 1 | 9.7 | 19.3 | 0.00 | 0.05 | 0.05 | 64 | 1008.2 |
| 20260510020018 | 12 | 358 | 12.9 | 17.7 | 0.00 | 0.05 | 0.05 | 63 | 1007.7 |
| 20260510014509 | 13 | 344 | 8.0 | 29.0 | 0.00 | 0.05 | 0.05 | 61 | 1007.1 |
| 20260510013009 | 13 | 330 | 16.1 | 25.7 | 0.00 | 0.05 | 0.05 | 59 | 1006.6 |
| 20260510011513 | 15 | 354 | 9.7 | 27.4 | 0.00 | 0.05 | 0.05 | 56 | 1006.3 |
| 20260510010007 | 16 | 19 | 20.9 | 32.2 | 0.00 | 0.05 | 0.05 | 52 | 1005.9 |
| 20260510004506 | 16 | 314 | 3.2 | 6.4 | 0.00 | 0.05 | 0.05 | 48 | 1005.0 |
| 20260510003006 | 16 | 283 | 3.2 | 8.0 | 0.00 | 0.05 | 0.05 | 46 | 1005.0 |
| 20260510001506 | 16 | 283 | 6.4 | 20.9 | 0.00 | 0.05 | 0.05 | 45 | 1004.7 |
| 20260510000014 | 17 | 274 | 19.3 | 29.0 | 0.00 | 0.05 | 0.05 | 43 | 1004.5 |
| 20260509234507 | 17 | 286 | 19.3 | 33.8 | 0.00 | 0.05 | 0.05 | 41 | 1004.3 |
| 20260509233007 | 17 | 311 | 22.5 | 38.6 | 0.00 | 0.05 | 0.05 | 42 | 1004.2 |
| 20260509231503 | 18 | 297 | 20.9 | 33.8 | 0.00 | 0.05 | 0.05 | 45 | 1003.9 |
| 20260509230002 | 18 | 314 | 19.3 | 32.2 | 0.00 | 0.05 | 0.05 | 45 | 1003.6 |
| 20260509224500 | 18 | 285 | 9.7 | 32.2 | 0.00 | 0.05 | 0.05 | 49 | 1003.0 |
| 20260509223103 | 18 | 282 | 19.3 | 35.4 | 0.00 | 0.05 | 0.05 | 47 | 1002.7 |
| 20260509221600 | 18 | 297 | 22.5 | 48.3 | 0.00 | 0.05 | 0.05 | 46 | 1002.5 |
| 20260509214559 | 18 | 243 | 14.5 | 43.5 | 0.00 | 0.05 | 0.05 | 48 | 1002.2 |
| 20260509213101 | 18 | 285 | 14.5 | 45.1 | 0.00 | 0.05 | 0.05 | 48 | 1002.1 |
| 20260509211603 | 18 | 284 | 19.3 | 46.7 | 0.00 | 0.05 | 0.05 | 46 | 1001.9 |
| 20260509210056 | 18 | 284 | 16.1 | 43.5 | 0.00 | 0.05 | 0.05 | 48 | 1001.7 |